Flag for Italy Weather past 2 weeks in Bologna, Italy

73 °F

Passing clouds.

Feels Like: 76 °F
Forecast: 57 / 71 °F
Wind: 8 mph from Southeast

Location: Bologna / Borgo Panigale

Current Time: Oct 4, 2015 at 1:53:04 PM

Latest Report: Oct 4, 2015 at 12:50 PM

Visibility: N/A

Pressure: 30.07 "Hg

Humidity: 69%

Dew point: 63 °F

Location of BolognaLocation

Historic Weather in Bologna — Graph


Bologna temperature yesterday

Maximum temperature yesterday: 72 °F (at 3:50 PM)
Minimum temperature yesterday: 57 °F (at 12:50 AM)
Average temperature yesterday: 62 °F

Past Weeks' High & Low Weather Summary

High82 °F (Sep 19, 3:50 PM)100% (Oct 2, 2:20 PM)30.33 "Hg (Oct 2, 2:20 PM)
Low52 °F (Oct 1, 3:20 AM)28% (Sep 19, 5:50 PM)29.59 "Hg (Sep 23, 7:50 AM)
Average63 °F68%30.07 "Hg
* Reported Sep 19 12:20 PM — Oct 4 12:20 PM, Bologna, Weather by CustomWeather, © 2015

Note: Actual official high and low records may vary slightly from our data, if they occured in-between our weather recording intervals... More about our weather records


Bologna weather history for previous 24 hours

Time TempWeatherWind HumidityBarometerVisibility
12:20 PM
Sun, Oct 4
70 °FPartly sunny.8 mph83%30.07 "HgN/A
11:50 AM66 °FPartly sunny.6 mph88%30.09 "HgN/A
11:20 AM64 °FLight rain. Partly sunny.6 mph94%30.09 "HgN/A
10:50 AM64 °FScattered clouds.5 mph88%30.09 "HgN/A
10:20 AM63 °FScattered clouds.5 mph94%30.09 "Hg4 mi
9:50 AM61 °FPartly sunny.5 mph94%30.09 "Hg4 mi
9:20 AM59 °FLight rain. Partly sunny.6 mph100%30.09 "Hg2 mi
8:50 AM59 °FRain. Broken clouds.7 mph94%30.12 "Hg1 mi
8:20 AM59 °FRain. Broken clouds.9 mph94%30.09 "Hg2 mi
7:50 AM61 °FPassing clouds.10 mph88%30.09 "HgN/A
7:20 AM64 °FPassing clouds.5 mph78%30.07 "HgN/A
6:50 AM64 °FPassing clouds.3 mph78%30.07 "HgN/A
6:20 AM64 °FPassing clouds.8 mph73%30.07 "HgN/A
5:50 AM66 °FPassing clouds.9 mph68%30.07 "HgN/A
5:20 AM66 °FPassing clouds.12 mph68%30.07 "HgN/A
4:50 AM66 °FPassing clouds.13 mph68%30.09 "HgN/A
4:20 AM64 °FPassing clouds.7 mph73%30.09 "HgN/A
3:50 AM64 °FPassing clouds.7 mph73%30.09 "HgN/A
3:20 AM63 °FPassing clouds.9 mph77%30.09 "HgN/A
2:50 AM64 °FClear.10 mph73%30.12 "Hg10 mi
2:20 AM61 °FClear.2 mph88%30.12 "Hg10 mi
1:50 AM61 °FPassing clouds.5 mph83%30.12 "HgN/A
1:20 AM63 °FClear.9 mph77%30.12 "Hg10 mi
12:50 AM61 °FClear.7 mph83%30.12 "Hg10 mi
12:20 AM61 °FClear.6 mph88%30.15 "Hg10 mi
11:20 PM
Sat, Oct 3
59 °FClear.7 mph94%30.15 "Hg10 mi
10:50 PM59 °FClear.2 mph94%30.15 "Hg5 mi
10:20 PM59 °FClear.3 mph94%30.15 "Hg6 mi
9:50 PM59 °FClear.2 mph94%30.15 "Hg10 mi
9:20 PM61 °FClear.3 mph88%30.15 "Hg10 mi
8:50 PM61 °FPassing clouds.3 mph88%30.15 "HgN/A
8:20 PM63 °FPassing clouds.3 mph88%30.15 "HgN/A
7:50 PM64 °FPassing clouds.1 mph83%30.15 "HgN/A
7:20 PM64 °FPassing clouds.1 mph83%30.15 "HgN/A
6:50 PM68 °FScattered clouds.2 mph73%30.15 "HgN/A
6:20 PM70 °FPartly sunny.2 mph69%30.15 "HgN/A
5:50 PM70 °FPartly sunny.2 mph69%30.15 "HgN/A
5:20 PM70 °FScattered clouds.2 mph69%30.15 "HgN/A
4:50 PM70 °FScattered clouds.2 mph69%30.15 "HgN/A
4:20 PM70 °FScattered clouds.3 mph69%30.15 "HgN/A
3:50 PM72 °FPassing clouds.3 mph65%30.15 "HgN/A
3:20 PM70 °FPassing clouds.5 mph64%30.15 "HgN/A
2:50 PM70 °FPassing clouds.5 mph69%30.15 "HgN/A
2:20 PM68 °FPassing clouds.3 mph73%30.15 "HgN/A
1:50 PM66 °FPassing clouds.5 mph78%30.18 "HgN/A
1:20 PM66 °FPassing clouds.2 mph78%30.18 "HgN/A
Weather by CustomWeather, © 2015

See weather overviewHow to use our weather pages